Location: Eimen
(51.8766°N, 9.7806°E)
Time: 11:25:38
(UTC+00:00)

COSMOS 2428 - Pass Details

Date: 23 May 2024
Orbit: 844 x 856 km, 70.9° (Epoch: 23 June)

Event Time Altitude Azimuth Distance (km) Brightness Sun altitude
Rises 01:56:19 0° 330° (NNW) 3,415 6.2 -9.6°
Reaches altitude 10° 01:58:52 10° 336° (NNW) 2,477 5.5 -9.4°
Maximum altitude 02:04:22 49° 51° (NE) 1,087 3.8 -8.9°
Drops below altitude 10° 02:09:52 10° 126° (SE) 2,470 5.2 -8.3°
Sets 02:12:23 0° 132° (SE) 3,403 5.8 -8.1°
